Location: Unspecified
(0.0000°N, 0.0000°E)
Time: 10:51:11
(UTC+00:00)

Secor 1 Rocket - Visible Passes

Search period start: 11 March 2026 00:00
Search period end: 21 March 2026 00:00
Orbit: 898 x 918 km, 69.9° (Epoch: 11 March)

Date Brightness Start Highest point End Pass type
(mag) Time Alt. Az. Time Alt. Az. Time Alt. Az.
18 Mar 6.6 19:42:41 10° SSE 19:44:18 17° SSE 19:44:18 17° SSE visible
19 Mar 5.8 19:47:15 10° S 19:50:46 33° SSE 19:50:46 33° SSE visible
20 Mar 4.8 19:52:05 10° S 19:57:39 70° SE 19:57:39 70° SE visible
